[[{"header":{"parameterUnit":"m.s-1","parameterCategory":1,"la1":30.2991,"la2":30.254,"lo1":-89.0895,"lo2":-89.0444,"dy":0.0017,"dx":0.0017,"nx":28,"ny":28,"refTime":"2024-03-10T09:00:00:Z","depth":0,"parameterNumber":2,"parameterNumberName":"U-component_of_WINDS"},"data":[0,0,0,0,0,0,0,0,0,0,0,0,0,0,0,0,0,0,0,0,0,0,0,0,0,0,0,0,0,0,0,0,0,0,0,0,0,0,0,0,0,0,0,0,0,0,0,0,0,0,0,0,0,0,0,0,0,0,2.1913,2.1914,0,2.196,2.196,2.1961,2.1961,2.196,2.1959,2.1959,2.2007,2.2009,2.2011,0,0,0,0,0,0,0,0,0,0,0,0,0,2.1825,2.1827,2.1913,2.1914,2.1914,2.196,2.196,2.1961,2.1961,2.196,2.1959,2.1959,2.2007,2.2009,2.2011,0,0,0,0,0,0,0,0,0,0,0,0,0,2.1867,2.1827,2.1913,2.192,2.1921,2.196,2.196,2.1961,2.1961,2.196,2.1959,2.1958,2.2006,2.2009,2.2011,2.2047,0,0,2.202,2.2021,0,0,0,0,0,0,0,0,2.1865,2.187,2.1918,2.1919,2.1921,2.1953,2.1947,2.199,2.1961,2.1946,2.1959,2.1958,2.199,2.1994,2.2005,2.2049,2.2051,2.202,2.2022,2.2023,2.2024,0,0,0,0,0,0,0,2.1862,2.1868,2.1932,2.1919,2.192,2.1921,2.1926,2.1955,2.1972,2.1947,2.1947,2.1953,2.1991,2.2002,2.2006,2.2052,2.202,2.2022,2.2024,2.2025,2.2128,2.213,0,0,0,0,0,0,2.1857,2.1866,2.193,2.1933,2.189,2.1923,2.1929,2.1944,2.1972,2.1976,2.1953,2.1952,2.1998,2.2003,2.2008,2.2051,2.2023,2.2026,2.2027,2.2127,2.2129,2.213,0,0,0,0,0,0,2.1855,2.1863,2.1928,2.1899,2.1908,2.1926,2.1943,2.1945,2.1957,2.1977,2.198,2.1962,2.1997,2.2004,2.2037,2.2053,2.2027,2.2029,2.2126,2.2128,2.2129,2.2139,0,0,0,0,0,0,2.1853,2.1862,2.1875,2.19,2.1909,2.1956,2.1944,2.1947,2.1962,2.1961,2.1986,2.1989,2.1997,2.2033,2.204,2.2056,2.2031,2.2125,2.2127,2.2129,2.2137,2.2141,2.2143,0,0,0,0,0,2.185,2.1876,2.1876,2.1884,2.1926,2.1957,2.1963,2.1971,2.1963,2.1976,2.199,2.1988,2.205,2.2037,2.2044,2.2062,2.2124,2.2126,2.2129,2.2136,2.214,2.2143,0,0,0,0,0,0,2.1853,2.1879,2.188,2.1915,2.1934,2.1957,2.1975,2.1975,2.1997,2.1996,2.2006,2.2012,2.2045,2.2057,2.2041,2.2098,2.2086,2.209,2.2089,2.2093,2.2096,2.2092,2.2034,0,0,0,0,0,2.1858,2.1881,2.1903,2.1932,2.1941,2.1956,2.197,2.1975,2.1996,2.2004,2.2019,2.2039,2.2063,2.2079,2.2102,2.2139,2.2145,2.2155,2.2159,2.2161,2.2164,2.2185,2.219,2.2138,2.2138,2.2138,0,0,2.1868,2.1886,2.1899,2.1933,2.1948,2.1972,2.1963,2.1989,2.2007,2.2008,2.204,2.2053,2.2076,2.2111,2.2128,2.2122,2.218,2.2164,2.2166,2.2168,2.2188,2.2193,2.2198,2.2139,2.2139,2.2139,0,0,2.1899,2.1914,2.194,2.1956,2.198,2.199,2.1996,2.202,2.2028,2.2061,2.2062,2.2084,2.2126,2.2142,2.2156,2.2195,2.2194,2.2202,2.2218,2.2239,2.2243,2.2247,2.2261,2.2266,2.2205,2.2206,2.2206,0,2.1909,2.1944,2.1954,2.1979,2.1994,2.1997,2.2024,2.2039,2.2069,2.2079,2.2073,2.2125,2.2141,2.2181,2.219,2.2201,2.2209,2.2199,2.2242,2.2245,2.2249,2.2262,2.2268,2.2206,2.2206,2.2206,2.2206,0,2.1955,2.198,2.1998,2.2027,2.2045,2.2071,2.2084,2.2101,2.2105,2.2116,2.215,2.2169,2.2197,2.2207,2.2211,2.2248,2.2244,2.2239,2.2227,2.2255,2.2267,2.2273,2.2207,2.2207,2.2207,2.2207,0,0,2.1988,2.2023,2.2029,2.2043,2.207,2.2089,2.2116,2.2143,2.2157,2.2179,2.2201,2.2237,2.2234,2.2249,2.2256,2.2274,2.2304,2.2268,2.2268,2.2273,2.2346,2.2348,2.2354,2.2304,2.2305,2.2306,2.2344,0,2.2022,2.2068,2.2078,2.2119,2.2143,2.2146,2.217,2.2189,2.2201,2.2223,2.2236,2.2261,2.2254,2.2264,2.2282,2.2296,2.2318,2.2294,2.2326,2.2327,2.2319,2.2361,2.2363,2.2398,2.2349,2.235,2.235,0,2.2066,2.2089,2.2132,2.2156,2.2167,2.2187,2.2213,2.2234,2.2257,2.2264,2.2283,2.2287,2.2316,2.2304,2.2344,2.2327,2.2341,2.235,2.2352,2.2354,2.234,2.2364,2.2409,2.2414,2.2358,2.2358,2.2357,0,2.2086,2.2127,2.2158,2.217,2.2199,2.2214,2.2227,2.2249,2.2265,2.2288,2.2298,2.2325,2.2339,2.2359,2.2372,2.2361,2.2411,2.2399,2.2418,2.2418,2.2427,2.2426,2.2475,2.2437,2.2437,2.2437,2.2437,0,2.2122,2.2148,2.2167,2.2186,2.2216,2.2228,2.2257,2.2271,2.229,2.2312,2.2318,2.2339,2.2354,2.2377,2.2387,2.2419,2.2425,2.2432,2.2434,2.2431,2.243,2.244,2.2438,2.2439,2.2438,2.2438,2.2438,0,2.2148,2.2162,2.2196,2.2222,2.2229,2.225,2.2272,2.2291,2.2303,2.2332,2.2339,2.2358,2.2386,2.24,2.2435,2.2442,2.2478,2.2479,2.247,2.2471,2.2488,2.2486,2.2544,2.2552,2.251,2.251,2.2511,0,2.2169,2.219,2.2218,2.2233,2.2246,2.2271,2.2287,2.23,2.2317,2.2345,2.2361,2.2389,2.2412,2.2457,2.2474,2.2501,2.2503,2.2521,2.2507,2.2503,2.2503,2.2501,2.2503,2.2523,2.2524,2.2524,2.2524,0,2.2206,2.2212,2.2236,2.2262,2.2281,2.2302,2.2323,2.2336,2.2352,2.2371,2.24,2.2418,2.2454,2.2482,2.251,2.2525,2.2527,2.2529,2.2535,2.2531,2.2525,2.2529,2.2476,2.2527,2.2527,2.2527,2.2526,2.2526,2.2231,2.2249,2.2272,2.2298,2.2315,2.2335,2.2354,2.2369,2.2393,2.2423,2.2429,2.246,2.2483,2.2522,2.2537,2.2562,2.2558,2.2566,2.2568,2.257,2.257,2.2522,2.2567,2.2567,2.2567,2.2567,2.2567,0,2.2267,2.2282,2.2306,2.2336,2.2356,2.2358,2.2381,2.2399,2.2425,2.2447,2.247,2.2503,2.2531,2.2551,2.2579,2.2595,2.2597,2.2602,2.26,2.2604,2.2572,2.2564,2.26,2.26,2.26,2.26,2.26,2.26,2.2289,2.232,2.2329,2.237,2.2385,2.2414,2.2428,2.2447,2.2464,2.2501,2.2524,2.2537,2.2558,2.2588,2.2614,2.2619,2.2629,2.2634,2.264,2.261,2.2606,2.2603,2.2595,2.2637,2.2637,2.2669,2.267,2.267]},{"header":{"parameterUnit":"m.s-1","parameterCategory":1,"la1":30.2991,"la2":30.254,"lo1":-89.0895,"lo2":-89.0444,"dy":0.0017,"dx":0.0017,"nx":28,"ny":28,"refTime":"2024-03-10T09:00:00:Z","depth":0,"parameterNumber":3,"parameterNumberName":"V-component_of_WINDS"},"data":[0,0,0,0,0,0,0,0,0,0,0,0,0,0,0,0,0,0,0,0,0,0,0,0,0,0,0,0,0,0,0,0,0,0,0,0,0,0,0,0,0,0,0,0,0,0,0,0,0,0,0,0,0,0,0,0,0,0,-6.9697,-6.9699,0,-6.9913,-6.9915,-6.9918,-6.991,-6.9907,-6.9904,-6.9902,-7.012,-7.0128,-7.0136,0,0,0,0,0,0,0,0,0,0,0,0,0,-6.9277,-6.9285,-6.9697,-6.97,-6.9702,-6.9912,-6.9915,-6.9918,-6.9911,-6.9907,-6.9904,-6.99,-7.0117,-7.0127,-7.0137,0,0,0,0,0,0,0,0,0,0,0,0,0,-6.9473,-6.9287,-6.9696,-6.9724,-6.9729,-6.9912,-6.9916,-6.9919,-6.9912,-6.9907,-6.9903,-6.9899,-7.0113,-7.0126,-7.0139,-7.0308,0,0,-7.0178,-7.0184,0,0,0,0,0,0,0,0,-6.9462,-6.9488,-6.9717,-6.9722,-6.9728,-6.988,-6.9847,-7.0049,-6.9913,-6.9842,-6.9902,-6.9896,-7.0043,-7.0062,-7.0112,-7.0318,-7.0327,-7.0179,-7.0187,-7.0193,-7.0196,0,0,0,0,0,0,0,-6.9448,-6.9479,-6.9782,-6.9721,-6.9727,-6.9725,-6.9748,-6.9886,-6.9965,-6.9848,-6.9848,-6.9874,-7.0045,-7.01,-7.0117,-7.0331,-7.0179,-7.019,-7.0198,-7.0203,-7.0688,-7.0693,0,0,0,0,0,0,-6.9429,-6.9468,-6.9775,-6.9789,-6.9581,-6.9736,-6.9762,-6.9836,-6.9964,-6.9979,-6.9877,-6.9873,-7.008,-7.0102,-7.0125,-7.0333,-7.0192,-7.0205,-7.0212,-7.0683,-7.0689,-7.0695,0,0,0,0,0,0,-6.942,-6.9456,-6.9767,-6.9628,-6.9668,-6.9748,-6.9831,-6.9842,-6.9897,-6.9986,-7.0,-6.9918,-7.0077,-7.0107,-7.0263,-7.034,-7.021,-7.0222,-7.0677,-7.0685,-7.0692,-7.0749,0,0,0,0,0,0,-6.9408,-6.9453,-6.9519,-6.963,-6.9675,-6.9902,-6.9836,-6.985,-6.9919,-6.9915,-7.0028,-7.0042,-7.0076,-7.0244,-7.0276,-7.0355,-7.0232,-7.067,-7.068,-7.069,-7.0741,-7.0758,-7.0772,0,0,0,0,0,-6.9393,-6.9525,-6.9522,-6.9559,-6.9759,-6.9906,-6.9932,-6.9969,-6.9925,-6.9992,-7.0049,-7.0039,-7.0326,-7.026,-7.0296,-7.038,-7.0666,-7.0678,-7.0689,-7.0733,-7.0754,-7.0772,0,0,0,0,0,0,-6.9419,-6.954,-6.9538,-6.971,-6.9798,-6.9905,-6.999,-6.999,-7.0091,-7.0083,-7.0124,-7.0149,-7.0306,-7.0359,-7.0283,-7.0552,-7.049,-7.051,-7.0512,-7.0533,-7.0548,-7.0532,-7.0243,0,0,0,0,0,-6.9445,-6.9556,-6.9655,-6.9797,-6.9842,-6.9908,-6.9974,-6.9995,-7.0088,-7.0125,-7.0194,-7.0283,-7.0394,-7.0466,-7.0572,-7.0748,-7.0773,-7.0824,-7.084,-7.0852,-7.0869,-7.0967,-7.0991,-7.0733,-7.0733,-7.0732,0,0,-6.95,-6.9579,-6.9647,-6.9805,-6.9876,-6.9989,-6.994,-7.0061,-7.0146,-7.0143,-7.0296,-7.0349,-7.0452,-7.0619,-7.0696,-7.0668,-7.0946,-7.0867,-7.0876,-7.0886,-7.0981,-7.1006,-7.1027,-7.0741,-7.0739,-7.0738,0,0,-6.9658,-6.9729,-6.9856,-6.9928,-7.0037,-7.008,-7.0111,-7.0219,-7.0255,-7.0409,-7.0409,-7.051,-7.0699,-7.0773,-7.0836,-7.1023,-7.1018,-7.1057,-7.114,-7.1235,-7.1256,-7.1274,-7.1342,-7.1366,-7.1073,-7.1073,-7.1073,0,-6.9711,-6.9883,-6.9921,-7.0045,-7.0115,-7.0118,-7.0248,-7.0316,-7.0453,-7.0501,-7.0467,-7.0707,-7.0776,-7.0961,-7.1008,-7.1057,-7.1094,-7.1044,-7.125,-7.1269,-7.1286,-7.1352,-7.1377,-7.1077,-7.1077,-7.1076,-7.1076,0,-6.9945,-7.0064,-7.0154,-7.0289,-7.0368,-7.0494,-7.0551,-7.0627,-7.0641,-7.0688,-7.0846,-7.0929,-7.1054,-7.1099,-7.1113,-7.1287,-7.1267,-7.1241,-7.118,-7.1314,-7.1377,-7.1402,-7.1083,-7.1081,-7.108,-7.1079,0,0,-7.0125,-7.028,-7.0312,-7.0374,-7.0495,-7.0588,-7.0714,-7.0837,-7.0902,-7.0997,-7.1104,-7.1265,-7.1243,-7.1314,-7.1337,-7.142,-7.1566,-7.1385,-7.1388,-7.1417,-7.1764,-7.1783,-7.1812,-7.1562,-7.1567,-7.1571,-7.1756,0,-7.0297,-7.0522,-7.056,-7.0757,-7.0868,-7.0874,-7.0984,-7.107,-7.1117,-7.1218,-7.127,-7.1385,-7.1346,-7.1389,-7.1472,-7.153,-7.1636,-7.1517,-7.1663,-7.1667,-7.1638,-7.1844,-7.1865,-7.2035,-7.178,-7.1784,-7.1787,0,-7.0527,-7.0629,-7.0838,-7.0946,-7.0994,-7.1092,-7.1209,-7.1305,-7.1403,-7.1432,-7.1512,-7.1525,-7.1656,-7.159,-7.1771,-7.169,-7.1751,-7.1789,-7.1797,-7.1812,-7.1736,-7.1866,-7.209,-7.2116,-7.1826,-7.1823,-7.182,0,-7.0639,-7.0829,-7.0979,-7.1032,-7.116,-7.123,-7.1286,-7.1379,-7.1452,-7.1553,-7.1601,-7.1716,-7.1779,-7.1868,-7.1912,-7.1859,-7.2091,-7.2027,-7.2119,-7.2118,-7.2168,-7.2165,-7.2406,-7.2206,-7.2206,-7.2205,-7.2205,0,-7.0827,-7.0955,-7.1032,-7.1124,-7.1268,-7.131,-7.1451,-7.1506,-7.1589,-7.1692,-7.1703,-7.1799,-7.1852,-7.1956,-7.1991,-7.2137,-7.2165,-7.2192,-7.22,-7.2192,-7.2189,-7.2233,-7.2223,-7.2212,-7.2211,-7.2209,-7.2208,0,-7.0977,-7.1033,-7.1198,-7.1307,-7.1337,-7.1438,-7.1531,-7.1621,-7.1669,-7.1799,-7.1832,-7.1907,-7.203,-7.2083,-7.2234,-7.2257,-7.2425,-7.2423,-7.2393,-7.2396,-7.2485,-7.2476,-7.2764,-7.2805,-7.2577,-7.2579,-7.2581,0,-7.1094,-7.1193,-7.1313,-7.1383,-7.1443,-7.1555,-7.163,-7.1676,-7.1752,-7.1872,-7.1948,-7.2072,-7.2173,-7.237,-7.2437,-7.2553,-7.2555,-7.2648,-7.2573,-7.2562,-7.2558,-7.2552,-7.2563,-7.2662,-7.2664,-7.2666,-7.2668,0,-7.1296,-7.1319,-7.1426,-7.1545,-7.1633,-7.1728,-7.182,-7.1877,-7.1937,-7.2023,-7.215,-7.2229,-7.2385,-7.2508,-7.2628,-7.2685,-7.2688,-7.2691,-7.2719,-7.2712,-7.2691,-7.2705,-7.2432,-7.2684,-7.2683,-7.2681,-7.268,-7.268,-7.1434,-7.1523,-7.1622,-7.1741,-7.1816,-7.1903,-7.1993,-7.2053,-7.216,-7.2291,-7.2311,-7.2447,-7.2543,-7.2706,-7.2768,-7.2875,-7.2852,-7.2891,-7.2901,-7.2911,-7.2917,-7.2673,-7.2897,-7.2896,-7.2896,-7.2895,-7.2895,0,-7.1638,-7.1702,-7.1812,-7.1942,-7.2036,-7.203,-7.2133,-7.2212,-7.2332,-7.2422,-7.2522,-7.2669,-7.2789,-7.2866,-7.2987,-7.3058,-7.3062,-7.3088,-7.3084,-7.3098,-7.293,-7.2895,-7.3083,-7.3083,-7.3083,-7.3083,-7.3083,-7.3083,-7.1755,-7.1906,-7.1941,-7.2129,-7.2192,-7.2327,-7.2386,-7.2466,-7.2539,-7.2702,-7.2803,-7.2853,-7.2938,-7.3066,-7.3175,-7.3195,-7.3239,-7.3268,-7.3286,-7.3128,-7.3109,-7.309,-7.3058,-7.3276,-7.3277,-7.3444,-7.3446,-7.3447]}]]